Regional Weather Roundup
Issued by NWS Green Bay, WI

Home | Current Version | Previous Version | Graphics & Text | Print | Product List | Glossary Off
Versions: 1 2 3 4 5 6 7 8 9 10 11 12 13 14 15 16 17 18 19 20 21 22 23 24 25 26 27 28 29 30 31 32 33 34 35 36 37 38 39 40 41 42 43 44 45 46 47 48 49 50

000
ASUS43 KGRB 290311
RWRGRB

NORTH-CENTRAL AND NORTHEAST WISCONSIN REGIONAL WEATHER ROUNDUP
NATIONAL WEATHER SERVICE GREEN BAY WI
1000 PM CDT SAT MAY 28 2016

WIZ005-009-010>012-018-019-290400-
NORTH CENTRAL WISCONSIN

CITY           SKY/WX    TMP DP  RH WIND       PRES   REMARKS
IRONWOOD       CLOUDY    55  55 100 E3        29.79S VSB 1/4
MANITOWISH WTR NOT AVBL
ARBOR VITAE    MOCLDY    64  63  94 CALM      29.80F
EAGLE RIVER      N/A     63  62  98 CALM      29.81F
LAND O LAKES   FOG       62  62  99 CALM      29.84R VSB 1
RHINELANDER    LGT RAIN  66  62  87 SE7       29.83R
PHILLIPS       CLOUDY    60  60  99 CALM      29.81R
ANTIGO         CLOUDY    64  62  94 S7        29.83R
TOMAHAWK       CLOUDY    64  62  93 CALM      29.81S
MERRILL        LGT RAIN  69  63  83 S3        29.82R
$$

WIZ013-073-290400-
NORTHEAST WISCONSIN

CITY           SKY/WX    TMP DP  RH WIND       PRES   REMARKS
IRON MOUNTAIN  CLOUDY    69  63  81 SE7       29.82R
MARINETTE      CLOUDY    72  63  73 SW16      29.85R
OCONTO         CLOUDY    70  62  75 SW9G18    29.85R
$$

WIZ017-030-035>037-045-290400-
CENTRAL WISCONSIN

CITY           SKY/WX    TMP DP  RH WIND       PRES   REMARKS
MEDFORD        MOCLDY    63  63 100 S5        29.82R
WAUSAU         CLOUDY    69  63  81 S8        29.80R
MOSINEE        PTCLDY    64  64 100 SE3       29.83R
MARSHFIELD     CLOUDY    66  59  78 S6        29.81R
WISC RAPIDS    CLOUDY    65  61  87 SE5       29.83R
STEVENS POINT  MOCLDY    65  60  82 S9        29.83R
WAUPACA        CLOUDY    66  64  94 S6        29.84S
SHAWANO        LGT RAIN  67  63  85 S5        29.84F
CLINTONVILLE   CLOUDY    64  61  88 S6        29.84S
WAUTOMA        CLOUDY    65  63  93 SE7       29.85R
$$

WIZ038-039-048-051-290400-
FOX VALLEY

CITY           SKY/WX    TMP DP  RH WIND       PRES   REMARKS
NWS GREEN BAY  CLOUDY    64  61  90 S10       29.84F
APPLETON       MOCLDY    64  63  94 SE8       29.85R
OSHKOSH        CLOUDY    63  60  90 S10       29.87R
FOND DU LAC    CLOUDY    64  61  90 S9        29.88R
$$

WIZ022-050-052-290400-
EAST CENTRAL WISCONSIN

CITY           SKY/WX    TMP DP  RH WIND       PRES   REMARKS
EPHRAIM        FAIR      64  60  86 S12G17    29.86R
STURGEON BAY   NOT AVBL
MANITOWOC      LGT RAIN  63  60  90 S12       29.93R
SHEBOYGAN      LGT RAIN  62  60  93 S5        29.92F
$$

LMZ563-521-522-541>543-290400-
LAKESHORE

STATION/POSITION TIME  TEMP    WIND        PRES    VSBY  WAVE
                       AIR SEA DIR/SP/G                  HT/PER
                 (UTC) (F)     (DEG/KT/KT) (MB)    (MI)  (FT/S)
SHEBOYGAN LKSHOR 0300   65     240/  5/  5 1013.5R
KEWAUNEE LKSHORE 0200                      1010.6R
ALGOMA MARINA    0217          210/  6/  8   N/A
NORTHPORT PIER   0200   60     150/  8/ 12 1011.2R
N MID LAKE BUOY  0250   53 46  190/ 12/ 14 1011.4F         3/ 5
SISTER BAY LKSHO 0205   63     170/ 15/ 19   N/A
CHAMBERS ISLAND  0200   67     160/  6/ 13 1010.2S
MENOMINEE LKSHOR 0200                      1009.3R
$$




USA.gov is the U.S. government's official web portal to all federal, state and local government web resources and services.